Location: Unnamed
(47.6578°N, 23.5640°E)
Time: 22:39:48
(UTC+03:00)

ISS - Pass Details

Date: 02 May 2020
Orbit: 418 x 421 km, 51.6° (Epoch: 08 May)

Event Time Altitude Azimuth Distance (km) Brightness Sun altitude
Exits shadow 03:59:54 30° 153° (SSE) 771 -2.7 -17.8°
Maximum altitude 04:00:10 31° 143° (SE) 763 -2.6 -17.7°
Drops below altitude 10° 04:03:11 10° 80° (E) 1,499 -0.2 -17.4°
Sets 04:05:25 0° 69° (ENE) 2,367 1.2 -17.2°
